Home > Weather > Weil am Rhein > Past weeks

Flag for Germany Past Weather in Weil am Rhein, Baden-Württemberg, Germany — Yesterday and Last 2 Weeks

Now
72 °F

Passing clouds.


Feels Like: 76 °F
Forecast: 54 / 77 °F
Wind: 3 mph from Northwest

Location: Bale-Mulhouse

Current Time: Jun 30, 2016 at 9:41:03 PM

Latest Report: Jun 30, 2016 at 9:00 PM


Visibility: 19 mi

Pressure: 30.00 "Hg

Humidity: 63%

Dew Point: 59 °F

Location of Weil am RheinLocation

Past Weather in Weil am Rhein — Graph

°F

Weil am Rhein Temperature Yesterday

Maximum temperature yesterday: 78 °F (at 7:00 PM)
Minimum temperature yesterday: 63 °F (at 1:00 AM)
Average temperature yesterday: 70 °F

High & Low Weather Summary for the Past Weeks

 TemperatureHumidityPressure
High93 °F (Jun 23, 5:00 PM)100% (Jun 20, 7:00 AM)30.29 "Hg (Jun 20, 7:00 AM)
Low47 °F (Jun 20, 6:00 AM)42% (Jun 23, 4:00 PM)29.61 "Hg (Jun 15, 8:00 PM)
Average66 °F75%30.04 "Hg
* Reported Jun 15 8:00 PM — Jun 30 8:00 PM, Weil am Rhein, Weather by CustomWeather, © 2016

Note: Actual official high and low records may vary slightly from our data, if they occured in-between our weather recording intervals... More about our weather records

Advertising

Weil am Rhein Weather History for the Previous 24 Hours

Scroll right to see more
 ConditionsComfort  
Time TempWeatherWind HumidityBarometerVisibility
8:00 PM
Thu, Jun 30
75 °FScattered clouds.7 mph58%29.98 "Hg19 mi
7:00 PM77 °FMild.10 mph51%29.97 "Hg28 mi
6:00 PM76 °FPartly sunny.8 mph56%29.96 "Hg19 mi
5:00 PM75 °FPartly sunny.7 mph57%29.97 "Hg19 mi
4:00 PM77 °FPartly sunny.10 mph52%29.98 "Hg19 mi
3:00 PM74 °FOvercast.7 mph57%29.98 "Hg19 mi
2:00 PM73 °FPartly sunny.3 mph63%30.00 "Hg19 mi
1:00 PM71 °FOvercast.3 mph68%30.01 "Hg19 mi
12:00 PM71 °FOvercast.2 mph71%30.02 "Hg19 mi
11:00 AM69 °FSprinkles. Overcast.2 mph76%30.01 "Hg19 mi
10:00 AM67 °FOvercast.2 mph78%30.02 "Hg19 mi
9:00 AM64 °FOvercast.No wind83%30.02 "Hg19 mi
8:00 AM63 °FSprinkles. Overcast.1 mph85%30.01 "Hg19 mi
7:00 AM64 °FLight rain. Overcast.6 mph87%30.01 "Hg19 mi
6:00 AM64 °FOvercast.1 mph86%29.99 "Hg19 mi
5:00 AM64 °FOvercast.2 mph85%29.98 "Hg12 mi
4:00 AM65 °FOvercast.2 mph88%29.97 "Hg17 mi
3:00 AM64 °FOvercast.5 mph93%29.97 "Hg9 mi
2:00 AM64 °FOvercast.2 mph92%29.94 "Hg22 mi
1:00 AM64 °FMild.2 mph92%29.93 "Hg16 mi
12:00 AM66 °FOvercast.3 mph86%29.95 "Hg14 mi
11:00 PM
Wed, Jun 29
65 °FOvercast.3 mph85%29.94 "Hg25 mi
10:00 PM69 °FPassing clouds.1 mph69%29.93 "Hg25 mi
9:00 PM74 °FScattered clouds.3 mph62%29.90 "Hg25 mi
Weather by CustomWeather, © 2016

See weather overviewHow to use our weather pages